Tracking 30923 objects as of 1-Jul-2025
HD Live streaming from Space Station
objects crossing your sky now

BEIDOU G7

Track BEIDOU G7 now!
BEIDOU G7 is classified as:


NORAD ID: 41586
Int'l Code: 2016-037A
Perigee: 35,752.3 km
Apogee: 35,834.0 km
Inclination: 1.8 °
Period: 1,436.1 minutes
Semi major axis: 42164 km
RCS: Unknown
Launch date: June 12, 2016
Source: People's Republic of China (PRC)
Launch site: Xichang Space Center, China (XSC)
Your satellite tracking list
STARLINK-3622
Track 1 satellite(s)




NASA's NSSDC Master Catalog

Two Line Element Set (TLE):
1 41586U 16037A   25181.89133002 -.00000353  00000-0  00000+0 0  9995
2 41586   1.7980  69.0961 0009683   9.7041 271.7980  1.00273942 33254
Source of the keplerian elements: AFSPC